Hourly Data Report for October 29, 2016

All times are specified in Local Standard Time (LST). Add 1 hour to adjust for Daylight Saving Time where and when it is observed.

ARVIAT A
NUNAVUT

61°05'38.000" N
94°04'18.000" W
10.40 m
2300427
71174
YEK

Download Data

Hourly Data (October 2016)
Hourly Data Report for October 29, 2016
Temp Definition
°C
Dew Point Temp Definition
°C
Rel Hum Definition
%
Wind Dir Definition
10's deg

Wind Spd Definition
km/h
Visibility Definition
km
Stn Press Definition
kPa
Hmdx Definition


Wind Chill Definition


Weather Definition


TIME
00:00 Legend Double Dagger -6.2 -6.6 97 23 32 16.1 100.74   -15 Snow
01:00 Legend Double Dagger -4.3 -4.8 96 23 34 16.1 100.58   -13 LegendNANA
02:00 Legend Double Dagger -3.9 -4.3 97 24 26 16.1 100.46   -11 Snow
03:00 Legend Double Dagger -3.3 -4.1 94 26 35 6.4 100.33   -11 Snow
04:00 Legend Double Dagger -2.9 -3.6 95 27 32 4.8 100.26   -10 Snow
05:00 Legend Double Dagger -2.4 -3.4 93 29 30 6.4 100.25   -10 Snow
06:00 Legend Double Dagger -2.7 -4.0 91 30 35 16.1 100.22   -11 LegendNANA
07:00 Legend Double Dagger -2.8 -3.9 92 29 28 16.1 100.22   -10 Snow
08:00 Legend Double Dagger -5.5 -6.6 92 33 39 2.8 100.26   -15 Snow
09:00 Legend Double Dagger -9.3 -10.7 90 35 37 16.1 100.35   -19 LegendNANA
10:00 Legend Double Dagger -11.3 -12.7 89 36 32 16.1 100.41   -22 LegendNANA
11:00 Legend Double Dagger -11.2 -12.9 87 35 39 16.1 100.49   -22 Snow
12:00 Legend Double Dagger -13.2 -15.5 83 35 39 16.1 100.56   -25 LegendNANA
13:00 Legend Double Dagger -13.7 -17.1 76 34 39 16.1 100.65   -26 LegendNANA
14:00 Legend Double Dagger -14.9 -17.2 83 35 37 16.1 100.70   -27 LegendNANA
15:00 Legend Double Dagger -15.6 -17.8 83 34 37 16.1 100.75   -28 LegendNANA
16:00 Legend Double Dagger -15.8 -17.9 84 33 28 16.1 100.81   -27 LegendNANA
17:00 Legend Double Dagger -15.0 -17.1 84 32 30 16.1 100.88   -26 LegendNANA
18:00 Legend Double Dagger -15.1 -17.4 83 30 34 16.1 100.89   -27 LegendNANA
19:00 Legend Double Dagger -13.2 -15.1 86 30 35 16.1 100.88   -24 LegendNANA
20:00 Legend Double Dagger -12.2 -14.0 87 31 43 11.3 100.88   -24 LegendNANA
21:00 Legend Double Dagger -11.7 -13.3 88 31 41 16.1 100.91   -23 LegendNANA
22:00 Legend Double Dagger -12.2 -13.8 88 31 39 16.1 100.95   -24 LegendNANA
23:00 Legend Double Dagger -12.7 -14.2 89 31 32 16.1 100.95   -23 LegendNANA

Notes on Data Quality.

Legend

  • E = Estimated
  • M = Missing
  • NA = Not Available
  • ‡ = Partner data that is not subject to review by the National Climate Archives
Date modified: